Regional Weather Roundup
Issued by NWS

Home | Current Version | Previous Version | Graphics & Text | Print | Product List | Glossary On
Versions: 1 2 3 4 5 6 7 8 9 10 11 12 13 14 15 16 17 18 19 20 21 22 23 24 25 26 27 28 29 30 31 32 33 34 35 36 37 38 39 40 41 42 43 44 45 46 47 48 49 50
000
ASUS43 KFSD 180202
RWRSD

WEATHER ROUNDUP FOR SOUTH DAKOTA
NATIONAL WEATHER SERVICE SIOUX FALLS SD
800 PM CST WED JAN 17 2018

NOTE: "FAIR" INDICATES FEW OR NO CLOUDS BELOW 12,000 FEET WITH NO
SIGNIFICANT WEATHER AND/OR OBSTRUCTIONS TO VISIBILITY.


SDZ001>005-009-010-012>017-180300-
NORTHWEST AND NORTH CENTRAL SOUTH DAKOTA

CITY           SKY/WX    TMP DP  RH WIND       PRES   REMARKS
BUFFALO          N/A     31  21  66 W20       30.01F WCI  19
FAITH            N/A     27  21  78 W8        30.10F WCI  19
MOBRIDGE       CLEAR     32  23  69 NW5       30.05F WCI  27
$$

SDZ012>016-024>037-041>051-057-063-072>074-180300-
SOUTHWEST AND SOUTH CENTRAL SOUTH DAKOTA

CITY           SKY/WX    TMP DP  RH WIND       PRES   REMARKS
RAPID CTY ARPT CLEAR     39  16  39 SW7       30.13F
PIERRE         CLEAR     27  22  81 W9        30.14F WCI  18
CUSTER         CLEAR     31  17  56 W7        30.14F WCI  24
ELLSWORTH AFB  CLEAR     32  17  53 SW6       30.11F WCI  27
PHILIP         CLEAR     32  25  75 SW7       30.14F WCI  26
PINE RIDGE     CLEAR     25  18  74 NW6       30.19F WCI  18
SPEARFISH        N/A     37  16  41 SW5       30.09F
WINNER         FAIR      35  25  66 W12       30.17F WCI  27
$$

SDZ004>011-016>023-039-040-180300-
NORTHEAST SOUTH DAKOTA

CITY           SKY/WX    TMP DP  RH WIND       PRES   REMARKS
ABERDEEN       CLEAR     21  18  88 SW8       30.08F WCI  11
WATERTOWN      CLOUDY    18  15  88 S8        30.09F WCI   8
BROOKINGS      CLOUDY    21  16  81 SE6       30.14F WCI  13
SISSETON         N/A     35  24  64 W20G31    30.02F WCI  24
$$

SDZ017-020-022-023-036>040-048>070-180300-
SOUTHEAST SOUTH DAKOTA

CITY           SKY/WX    TMP DP  RH WIND       PRES   REMARKS
SIOUX FALLS    CLOUDY    28  18  66 SW6       30.17R WCI  22
HURON          CLEAR     29  20  69 SW8       30.13F WCI  21
CHAMBERLAIN    CLEAR     32  26  78 W6        30.17S WCI  26
MITCHELL       CLEAR     26  20  77 SW5       30.17F WCI  20
YANKTON        CLOUDY    28  19  69 SW9       30.19F WCI  19
$$

ABBREVIATIONS USED IN REMARKS
   TC - TEMPERATURE IN CELSIUS
  WCI - WIND CHILL INDEX
   HX - HEAT INDEX
  VSB - VISIBILITY




USA.gov is the U.S. government's official web portal to all federal, state and local government web resources and services.